Location: Malvern Link
(52.1333°N, 2.3000°W)
Time: 07:51:56
(UTC+00:00)

Cosmos 1634 Rocket - Pass Details

Date: 09 December 2021
Orbit: 959 x 993 km, 82.9° (Epoch: 24 January)

Event Time Altitude Azimuth Distance (km) Brightness Sun altitude
Rises 17:57:49 0° 203° (SSW) 3,698 7.6 -17.3°
Reaches altitude 10° 18:00:23 10° 207° (SSW) 2,753 6.9 -17.7°
Maximum altitude 18:06:36 57° 286° (WNW) 1,163 4.7 -18.6°
Drops below altitude 10° 18:12:50 10° 4° (N) 2,762 6.2 -19.5°
Sets 18:15:26 0° 9° (N) 3,711 6.8 -19.9°
